Ignacio, CO

12:09 AM MST on January 20, 2017 (GMT -0700)
Durango-La Plata County

Weather History for KDRO - March, 2013

Change the Weather History Date:

Tuesday, March 12, 2013

  Actual Average Record
Temperature  
Mean Temperature 42 °F 36 °F  
Max Temperature 57 °F 51 °F 70 °F (1989)
Min Temperature 26 °F 22 °F 13 °F (1977)
Degree Days  
Heating Degree Days 23 29  
Month to date heating degree days 339 363  
Since 1 July heating degree days 5685 5538  
Cooling Degree Days 0 0  
Month to date cooling degree days 0 0  
Year to date cooling degree days 0 0  
Moisture  
Dew Point 26 °F    
Average Humidity 61    
Maximum Humidity 92    
Minimum Humidity 30    
Precipitation  
Precipitation 0.00 in 0.04 in 0.60 in (1982)
Month to date precipitation 0.40 0.57  
Year to date precipitation 2.61 2.85  
Sea Level Pressure  
Sea Level Pressure 30.20 in    
Wind  
Wind Speed 4 mph (SSW)    
Max Wind Speed 17 mph    
Max Gust Speed 22 mph    
Visibility 10 miles    
Events      
T = Trace of Precipitation, MM = Missing Value Source: NWS Daily Summary

Daily Weather History Graph

Daily Weather History Graph

Search for Another Location

Airport or City:

Trip Planner

Search our weather history database for the weather conditions in past years. The results will help you decide how hot, cold, wet, or windy it might be!

Date:

Astronomy

Mar. 12, 2013 Rise Set
Actual Time 7:25 AM MDT 7:15 PM MDT
Civil Twilight 7:00 AM MDT 7:41 PM MDT
Nautical Twilight 6:29 AM MDT 8:11 PM MDT
Astronomical Twilight 5:59 AM MDT 8:42 PM MDT
Moon 7:36 AM MDT (3/12) 8:31 PM MDT (3/12)
Length of Visible Light 12h 41m
Length of Day
11h 49m
New Moon, 1% of the Moon is Illuminated
Mar 12
New Moon
Mar 19
First Quarter
Mar 27
Full
Apr 2
Last Quarter
Apr 10
New

Hourly Weather History & Observations

Time (MDT) Temp. Windchill Dew Point Humidity Pressure Visibility Wind Dir Wind Speed Gust Speed Precip Events Conditions
12:53 AM 34.0 °F 26.0 °F 23.0 °F 64% 30.12 in 10.0 mi West 10.4 mph - N/A   Clear
1:53 AM 34.0 °F 28.0 °F 23.0 °F 64% 30.12 in 10.0 mi West 6.9 mph - N/A   Clear
2:53 AM 30.9 °F 27.5 °F 24.1 °F 76% 30.12 in 10.0 mi ESE 3.5 mph - N/A   Clear
3:53 AM 30.0 °F - 25.0 °F 82% 30.11 in 10.0 mi Calm Calm - N/A   Clear
4:53 AM 28.0 °F 22.8 °F 25.0 °F 88% 30.14 in 10.0 mi East 4.6 mph - N/A   Clear
5:53 AM 28.0 °F - 25.0 °F 88% 30.16 in 10.0 mi Calm Calm - N/A   Clear
6:53 AM 28.0 °F 24.2 °F 23.0 °F 81% 30.19 in 10.0 mi North 3.5 mph - N/A   Clear
7:53 AM 27.0 °F 23.0 °F 24.1 °F 89% 30.23 in 10.0 mi ENE 3.5 mph - N/A   Clear
8:53 AM 30.9 °F 27.5 °F 24.1 °F 76% 30.25 in 10.0 mi ENE 3.5 mph - N/A   Clear
9:53 AM 35.1 °F 29.3 °F 25.0 °F 67% 30.26 in 10.0 mi East 6.9 mph - N/A   Clear
10:53 AM 39.0 °F 35.7 °F 26.1 °F 60% 30.26 in 10.0 mi ESE 4.6 mph - N/A   Clear
11:53 AM 44.1 °F 42.5 °F 27.0 °F 51% 30.25 in 10.0 mi SE 3.5 mph - N/A   Clear
12:53 PM 48.0 °F - 26.1 °F 42% 30.20 in 10.0 mi Variable 3.5 mph - N/A   Clear
1:53 PM 52.0 °F - 27.0 °F 38% 30.19 in 10.0 mi WSW 10.4 mph - N/A   Clear
2:53 PM 54.0 °F - 28.9 °F 38% 30.16 in 10.0 mi SW 9.2 mph - N/A   Clear
3:53 PM 55.0 °F - 27.0 °F 34% 30.14 in 10.0 mi SW 5.8 mph - N/A   Clear
4:53 PM 55.9 °F - 27.0 °F 33% 30.15 in 10.0 mi WSW 6.9 mph - N/A   Clear
5:53 PM 55.0 °F - 25.0 °F 31% 30.16 in 10.0 mi WSW 9.2 mph - N/A   Clear
6:53 PM 51.1 °F - 27.0 °F 39% 30.19 in 10.0 mi WSW 9.2 mph - N/A   Clear
7:53 PM 46.9 °F - 27.0 °F 46% 30.25 in 10.0 mi SSW 5.8 mph - N/A   Clear
8:53 PM 43.0 °F - 27.0 °F 53% 30.26 in 10.0 mi Calm Calm - N/A   Clear
9:53 PM 36.0 °F - 28.9 °F 76% 30.29 in 10.0 mi Calm Calm - N/A   Clear
10:53 PM 36.0 °F - 27.0 °F 70% 30.29 in 10.0 mi Calm Calm - N/A   Clear
11:53 PM 34.0 °F 31.0 °F 26.1 °F 73% 30.29 in 10.0 mi Variable 3.5 mph - N/A   Clear